Regional Weather Roundup
Issued by NWS

Home | Current Version | Previous Version | Graphics & Text | Print | Product List | Glossary On
Versions: 1 2 3 4 5 6 7 8 9 10 11 12 13 14 15 16 17 18 19 20 21 22 23 24 25 26 27 28
000
ASUS45 KSLC 191310
RWRUT

UTAH REGIONAL WEATHER ROUNDUP
NATIONAL WEATHER SERVICE SALT LAKE CITY UT
700 AM MDT SAT AUG 19 2017

UTZ001>011-023>025-191400-

NORTHERN UTAH

CITY           SKY/WX    TMP DP  RH WIND       PRES   REMARKS
BRIGHAM CITY   CLEAR     56  38  49 NW3       30.08S
HILL AFB       CLEAR     61  32  32 E21       30.09S
LOGAN          CLEAR     46  41  82 NW5       30.11R
OGDEN          CLEAR     61  33  35 S6        30.07R
SALT LAKE CITY PTCLDY    65  43  44 SE8       30.06R
TOOELE VALLEY  CLEAR     64  34  32 S7        30.07S
WENDOVER       PTCLDY    65  35  33 CALM      30.06R
HEBER CITY     CLEAR     46  37  71 CALM      30.21R
WEST JORDAN    CLEAR     61  39  45 SW6       30.09S

$$

UTZ011>015-024>027-191400-

CENTRAL/NORTHEAST UTAH

CITY           SKY/WX    TMP DP  RH WIND       PRES   REMARKS
PROVO AIRPORT  CLEAR     61  43  51 S5        30.11R
MOAB/CANYONLAN PTCLDY    65  29  25 VRB6      30.08R
DELTA          MOCLDY    61  36  39 NE8       30.10R
PRICE          PTCLDY    60  36  40 N10       30.19R
ROOSEVELT      CLEAR     50  39  66 W7        30.16S
VERNAL         CLEAR     55  38  52 W5        30.15R

$$

UTZ013>016-019>022-027-191400-

SOUTHERN UTAH

CITY           SKY/WX    TMP DP  RH WIND       PRES   REMARKS
BRYCE CANYON   CLEAR     45  37  73 W8        30.34R
CEDAR CITY     CLEAR     63  38  39 S3        30.16S
MILFORD        CLEAR     58  38  47 S8        30.12R
ST GEORGE      SUNNY     72  43  35 CALM      30.00R
HANKSVILLE     PTCLDY    64  32  29 CALM      30.09R
BLANDING       CLEAR     58  36  43 CALM      30.25R

$$

REGIONAL REPORTS     COLORADO/ARIZONA

CITY           SKY/WX    TMP DP  RH WIND       PRES   REMARKS
CRAIG, CO      CLOUDY    41  34  76 CALM      30.25R
GRAND JUNCTION CLEAR     64  36  35 E13       30.12R
RIFLE, CO      CLEAR     52  35  52 E3        30.21R
MONTROSE, CO   CLEAR     55  39  54 S5        30.22R
CORTEZ, CO     CLEAR     47  37  68 CALM      30.22R
COLORADO CITY    N/A     54  45  71 S5        30.16S
PAGE, AZ       CLEAR     73  38  27 CALM      30.07R
GRAND CANYON   PTCLDY    42  33  70 CALM      30.28R
KINGMAN, AZ    CLEAR     69  36  29 SE14      30.03S
FLAGSTAFF, AZ  MOCLDY    53  35  50 W3        30.31R

$$

REGIONAL REPORTS    NEVADA/IDAHO/WYOMING

CITY           SKY/WX    TMP DP  RH WIND       PRES   REMARKS
LAS VEGAS, NV  PTCLDY    81  38  21 W3        29.91R
ELY, NY        MOCLDY    53  34  48 SE3       30.21S
ELKO, NV       PTCLDY    50  26  39 MISG      30.15R
POCATELLO, ID  CLOUDY    46  29  51 N7        30.08R
BURLEY, ID     CLEAR     52  38  58 SW9       30.06R
FORT BRIDGER,    N/A     62  23  22 W10       30.28F
EVANSTON, WY   CLOUDY    51  28  41 SE8       30.27S
ROCK SPRINGS,  CLOUDY    58  29  33 CALM      30.23R
KEMMERER, WY     N/A     45  30  57 CALM      30.28R

$$




USA.gov is the U.S. government's official web portal to all federal, state and local government web resources and services.